Airfield :
LOGIN :

Register | Disclaimer

   EN    FR    IT 

 










Legend :    VFR   Marginal VFR   IFR   Intensive IFR   Very Intensive IFR
Visi :
Ceiling :
>= 8 km
>= 3000ft
5 to 8 km
1000 to 3000 ft
1500m to 5 km
500 to 1000 ft
800 to 1500m
200 to 500 ft
< 800m
< 200 ft
Symbols :   Thunderstorms  Fog  Heavy snow  Heavy precipitations  Wind > 20 kt
SIGMETs :     Misc.  Thunderstorms  Icing  Turbulence  Mountain Waves  Volcanic Ashes







- Airport Elevation : 76 ft
- IATA code : KID


ESMK - Kristianstad

CURRENT METAR :
  • 171120Z AUTO 29005KT 9999 NCD M01/M01 Q1017

EXPIRED METARs :
  • 171050Z AUTO 29005KT 9999 FEW019/// M01/M01 Q1017
  • 171020Z AUTO 29006KT 9999 OVC017/// M01/M01 Q1017
  • 170950Z AUTO 28004KT 9999 SCT016/// M02/M02 Q1016
  • 170920Z AUTO 29006KT 9999 NCD M02/M02 Q1016
  • 170850Z AUTO 29005KT 9999 NCD M02/M02 Q1015

Expired Forecast.
No reported NOTAMs for that airfield.



MET'MAP, your aeronautical weather chart ! - Copyright ORBIFLY December 2007 - Disclaimer

ORBIFLY MET'MAP TEAM :

Programming & Development : Alexandra Zaïnal
Concept & Development : Baudouin d'Aumeries
Co-Development & Prog : Marc-Olivier Méhu
Technical & hardware support : Manuel Goepfert

Contact : metmap@orbifly.com




SOURCES & CREDITS :

   NOAA